This is the latest recevied weather packets stored in our database for station/object K3BAY-1. If no packets are shown the sender has not sent any weather packets the latest 10 day(s).
| Time | Temp. | Humidity | Pressure | Rain* | Wind** | Luminosity | Snow |
|---|---|---|---|---|---|---|---|
| 1777343031 | 13.89° C | 61% | 1022.7 hPa | 0 mm | - | 0 W/m² | - |
| 1777342727 | 13.89° C | 62% | 1022.7 hPa | 0 mm | - | 0 W/m² | - |
| 1777342424 | 13.89° C | 61% | 1022.7 hPa | 0 mm | - | 0 W/m² | - |
| 1777342121 | 13.89° C | 63% | 1022.7 hPa | 0 mm | - | 0 W/m² | - |
| 1777341817 | 13.89° C | 63% | 1022.7 hPa | 0 mm | - | 0 W/m² | - |
| 1777341514 | 13.89° C | 63% | 1022.7 hPa | 0 mm | - | 0 W/m² | - |
| 1777341210 | 13.89° C | 64% | 1022.7 hPa | 0 mm | - | 0 W/m² | - |
| 1777340907 | 14.44° C | 63% | 1023.1 hPa | 0 mm | - | 0 W/m² | - |
| 1777340605 | 14.44° C | 63% | 1023.1 hPa | 0 mm | - | 0 W/m² | - |
| 1777340303 | 14.44° C | 63% | 1023.1 hPa | 0 mm | - | 0 W/m² | - |
| 1777339999 | 15° C | 64% | 1023.1 hPa | 0 mm | - | 0 W/m² | - |
| 1777339697 | 15° C | 65% | 1023.1 hPa | 0 mm | - | 0 W/m² | - |
| 1777339394 | 15° C | 66% | 1023.4 hPa | 0 mm | - | 0 W/m² | - |
| 1777339092 | 14.44° C | 70% | 1023.4 hPa | 0 mm | - | 0 W/m² | - |
| 1777338789 | 13.33° C | 76% | 1023.7 hPa | 0 mm | - | 0 W/m² | - |
| 1777338486 | 13.33° C | 76% | 1023.7 hPa | 0 mm | - | 0 W/m² | - |
| 1777338183 | 13.33° C | 76% | 1023.7 hPa | 0 mm | - | 0 W/m² | - |
| 1777337879 | 13.33° C | 76% | 1023.7 hPa | 0 mm | - | 0 W/m² | - |
| 1777337576 | 13.33° C | 75% | 1024.1 hPa | 0 mm | - | 0 W/m² | - |
| 1777337273 | 13.33° C | 75% | 1023.7 hPa | 0 mm | - | 0 W/m² | - |
| 1777336971 | 13.89° C | 74% | 1024.1 hPa | 0 mm | - | 0 W/m² | - |
| 1777336670 | 13.89° C | 74% | 1024.1 hPa | 0 mm | - | 0 W/m² | - |
| 1777336368 | 13.89° C | 74% | 1024.1 hPa | 0 mm | - | 0 W/m² | - |
| 1777336064 | 14.44° C | 73% | 1024.1 hPa | 0 mm | - | 0 W/m² | - |
| 1777335761 | 14.44° C | 72% | 1024.1 hPa | 0 mm | - | 0 W/m² | - |
* Rain latest hour (hover to see other rain measurements)
** Current wind speed in m/s (hover to see current wind gust speed)